Location: Central Falls
(41.8900°N, 71.3929°W)
Time: 15:04:32
(UTC+00:00)

Vanguard 1 Rocket - Pass Details

Date: 03 December 2023
Orbit: 654 x 4218 km, 34.3° (Epoch: 24 February)

Event Time Altitude Azimuth Distance (km) Brightness Sun altitude
Rises 14:14:01 0° 272° (W) 6,355 11.4 18.1°
Reaches altitude 10° 14:19:12 10° 268° (W) 4,732 10.8 18.7°
Maximum altitude 14:29:53 43° 202° (SSW) 1,789 9.6 19.7°
Drops below altitude 10° 14:35:51 10° 131° (SE) 2,664 11.4 20.3°
Sets 14:38:00 0° 124° (SE) 3,388 11.4 20.5°
